Location: Lamy Ridge Observatory
(35.5010°N, 105.8759°W)
Time: 17:17:30
(UTC-06:00)

ACS3 Solar Sail - Pass Details

Date: 11 September 2024
Orbit: 963 x 1036 km, 97.4° (Epoch: 04 October)

Event Time Altitude Azimuth Distance (km) Brightness Sun altitude
Exits shadow 20:18:53 18° 103° (ESE) 2,278 3.1 -13.5°
Drops below altitude 10° 20:26:46 10° 15° (NNE) 2,839 4.2 -15.1°
Enters shadow 21:38:09 -43° 172° (S) 10,041 7.0 -28.5°
Maximum altitude 22:05:17 48° 262° (W) 1,313 2.6 -33.2°
